Regional Weather Roundup
Issued by NWS Boston, MA

Home | Current Version | Previous Version | Text Only | Print | Product List | Glossary On
Versions: 1 2 3 4 5 6 7 8 9 10 11 12 13 14 15 16 17 18 19 20 21 22 23 24 25 26 27 28 29 30 31 32 33 34 35 36 37 38 39 40 41 42 43 44 45 46 47 48 49 50
000
ASUS41 KBOX 091810
RWRBOX

REGIONAL WEATHER ROUNDUP
NATIONAL WEATHER SERVICE TAUNTON MA
100 PM EST TUE FEB 09 2016

NOTE:  "FAIR" INDICATES FEW OR NO CLOUDS BELOW 12,000 FEET WITH NO
SIGNIFICANT WEATHER AND/OR OBSTRUCTIONS TO VISIBILITY.  THE FOLLOWING
OBSERVATION LOCATIONS DO NOT REPORT PRESENT WEATHER...PROVINCETOWN...
SMITHFIELD...BLOCK ISLAND...KEENE...AND OXFORD.

MAZALL-091900-
EASTERN MASSACHUSETTS

CITY           SKY/WX    TMP DP  RH WIND       PRES   REMARKS
BOSTON         CLOUDY    26  18  71 N6        29.62F WCI  19
6HR MIN TEMP:  20; 6HR MAX TEMP:  26;

BEVERLY        CLOUDY    27  17  66 NE6       29.60F WCI  20
LAWRENCE       CLOUDY    26  17  68 N5        29.62F WCI  20
BEDFORD        MOSUNNY  N/A N/A N/A NW6         N/A
BLUE HILL        N/A     24  20  84 NE8       29.56F WCI  15
NORWOOD        CLOUDY    27  19  72 NE8       29.61F WCI  19
MARSHFIELD     MIX PCPN  30  28  93 NW9G18    29.61F WCI  22
PLYMOUTH       CLOUDY    27  23  85 N10       29.58F WCI  17
TAUNTON        CLOUDY    30  21  69 N9        29.59F WCI  22
NEW BEDFORD    CLOUDY    30  23  75 N8        29.58F WCI  22
$$

MAZALL-091900-
CAPE COD AND THE ISLANDS

CITY           SKY/WX    TMP DP  RH WIND       PRES   REMARKS
FALMOUTH       CLOUDY    30  25  80 VRB7      29.57F WCI  23
HYANNIS        CLOUDY    32  26  78 NW8       29.55F WCI  25
CHATHAM        CLOUDY    31  26  82 N5        29.56F WCI  26
PROVINCETOWN   CLOUDY    33  26  75 N10       29.58F WCI  25
NANTUCKET      CLOUDY    34  27  75 N12       29.54F WCI  25
MARTHAS VNYRD  PTSUNNY   32  25  75 N13       29.55F WCI  22
$$

MAZALL-091900-
CENTRAL AND WESTERN MASSACHUSETTS

CITY           SKY/WX    TMP DP  RH WIND       PRES   REMARKS
WORCESTER      CLOUDY    23  16  74 N5        29.55F WCI  17
6HR MIN TEMP:  14; 6HR MAX TEMP:  23; 6HR PCP: TRACE;

FITCHBURG      CLOUDY    26  16  65 E5        29.61F WCI  20
ORANGE         CLOUDY    27  17  66 CALM      29.58F
SPRINGFIELD    CLOUDY    27  17  67 VRB3      29.58F
WESTFIELD      CLOUDY    27  17  66 SE5       29.59F WCI  22
NORTH ADAMS    CLOUDY    27  15  61 CALM      29.55F
PITTSFIELD     CLOUDY    25  16  68 S3        29.50F
$$

RIZALL-091900-
RHODE ISLAND

CITY           SKY/WX    TMP DP  RH WIND       PRES   REMARKS
PROVIDENCE     CLOUDY    29  20  69 N8        29.60F WCI  21
6HR MIN TEMP:  21; 6HR MAX TEMP:  29;

NEWPORT        CLOUDY    29  22  75 N10       29.57F WCI  20
BLOCK ISLAND   CLOUDY    30  27  86 NE8G17    29.56F WCI  23
SMITHFIELD     CLOUDY    27  18  69 N7        29.57F WCI  19
WESTERLY       CLOUDY    32  23  69 N6        29.59F WCI  26
$$

CTZALL-091900-
CONNECTICUT

CITY           SKY/WX    TMP DP  RH WIND       PRES   REMARKS
BRADLEY INTL   CLOUDY    27  18  69 NE7       29.60F WCI  19
6HR MIN TEMP:  17; 6HR MAX TEMP:  27; 6HR PCP: TRACE;

HARTFORD       FLURRIES  28  19  69 NE3       29.61F
BRIDGEPORT     MOSUNNY   30  22  72 E9        29.60F WCI  22
DANBURY        SUNNY     30  18  60 CALM      29.57F
GROTON         CLOUDY    30  23  75 N9        29.58F WCI  22
NEW HAVEN      PTSUNNY   30  20  66 N5        29.59F WCI  25
CHESTER        FAIR      30  21  69 NE7       29.57F WCI  23
MERIDEN        CLOUDY    29  19  66 N9        29.59F WCI  20
WILLIMANTIC    CLOUDY    30  19  63 NE5       29.59F WCI  25
$$

MEZ002-015-021-024-NHZ003-005-008-011-012-014-VTZ005-008-091900-
NORTHERN NEW ENGLAND

CITY           SKY/WX    TMP DP  RH WIND       PRES   REMARKS
PORTLAND ME    PTSUNNY   25  14  63 NE6       29.65F WCI  18
6HR MIN TEMP:  18; 6HR MAX TEMP:  26; 6HR PCP: TRACE;

BANGOR ME      FLURRIES  21  15  78 N9        29.65F WCI  11
CONCORD NH     MOSUNNY   26  14  60 SE3       29.60F
MANCHESTER NH  PTSUNNY   27  15  61 N3        29.60F
NASHUA NH        N/A     27  18  69 CALM      29.62F
PORTSMOUTH NH  MOSUNNY   28  14  57 NW6       29.61F WCI  21
JAFFREY NH     CLOUDY    24  15  68 E6        29.54F WCI  17
KEENE NH       MOSUNNY   27  12  54 CALM      29.59F
BURLINGTON VT  LGT SNOW  26  19  74 NE3       29.60F
MT. WASHINGTON PTSUNNY    7   3  85 W21         N/A  WCI -13
$$

NYZ052-076-091900-
EASTERN NEW YORK

CITY           SKY/WX    TMP DP  RH WIND       PRES   REMARKS
ALBANY         PTSUNNY   29  19  66 CALM      29.58F
6HR MIN TEMP:  23; 6HR MAX TEMP:  29; 6HR PCP:  0.01;

NEW YORK CITY  PTSUNNY   33  22  63 VRB7      29.59F WCI  27
6HR MIN TEMP:  28; 6HR MAX TEMP:  34;

$$

ANZALL-091900-
MARINE OBSERVATIONS

STATION/POSITION TIME  TEMP    WIND        PRES    VSBY  WAVE
                       AIR SEA DIR/SP/G                  HT/PER
                 (UTC) (F)     (DEG/KT/KT) (MB)    (MI)  (FT/S)
BOSTON BUOY      1750   28 41   10/ 16/ 19 1002.1F        11/11
BUZZARDS BAY     1700           20/ 13/ 15 1002.5F
NANTUCKET SOUND  1750   34 41  350/ 14/ 17 1000.4F         3/13
MASS BAY-STELLWA 1704   28 43  350/ 16/ 21   N/A    1 1/2 11/13
ISLE OF SHOALS   1800   26     350/  8/  9 1002.2F
S OF BLOCK IS    NOT AVBL
$$

......................KEY.........................
  SKY/WX - SKY CONDITION/PRESENT WEATHER
  TMP    - TEMPERATURE IN FAHRENHEIT
  DWPT   - DEWPOINT IN FAHRENHEIT
  RH     - RELATIVE HUMIDITY IN PERCENT
  WIND   - DIRECTION AND SPEED IN MPH
  PRES   - MEAN SEA LEVEL PRESSURE IN INCHES OF HG
  WCI    - WIND CHILL INDEX
  VSB    - VISIBILITY IN MILES
  HX     - HEAT INDEX
  TC     - TEMPERATURE IN CELSIUS
  VRB    - VARIABLE WIND DIRECTION
  N/A    - NOT AVAILABLE



USA.gov is the U.S. government's official web portal to all federal, state and local government web resources and services.